Regional Weather Roundup
Issued by NWS

Home | Current Version | Previous Version | Text Only | Print | Product List | Glossary Off
Versions: 1 2 3 4 5 6 7 8 9 10 11 12 13 14 15 16 17 18 19 20 21 22 23 24 25 26 27 28 29 30 31 32 33 34 35 36 37 38 39 40 41 42 43 44 45 46 47 48 49 50

000
ASUS44 KMEG 212210
RWRTN
TENNESSEE HOURLY STATE WEATHER ROUNDUP
NATIONAL WEATHER SERVICE MEMPHIS TN
400 PM CST SUN DEC 21 2014

TNZ002-004-019-021-049-052-054-088>092-212300-
WEST TENNESSEE

CITY           SKY/WX    TMP DP  RH WIND       PRES   REMARKS
MEMPHIS INTL   PTCLDY    56  31  38 SE5       30.02F
NWS MEMPHIS      N/A     54 N/A N/A MISG        N/A
JACKSON        PTCLDY    53  30  41 SE6       30.05S
DYERSBURG      CLEAR     52  27  37 E5        30.07S
UNION CITY     CLEAR     48  32  53 SE5       30.05S
PARIS          CLEAR     48  30  49 E3        30.07R
HUNTINGDON     PTCLDY    49  26  41 CALM      30.07R
LEXINGTON      CLEAR     52  32  46 CALM      30.04F
SAVANNAH       CLEAR     52  37  58 SE5       30.06R
$$

TNZ008-025-027-028-033-062-065-066-212300-
NORTH MIDDLE TENNESSEE

CITY           SKY/WX    TMP DP  RH WIND       PRES   REMARKS
NASHVILLE      MOCLDY    52  37  56 SE5       30.08S
CLARKSVILLE    PTCLDY    48  31  51 NE6       30.08S
SMYRNA         CLOUDY    52  39  61 CALM      30.08F
COOKEVILLE     CLOUDY    50  37  62 SE5       30.07F
CROSSVILLE     CLOUDY    48  35  60 S7        30.09F
$$

TNZ061-075-076-078-094-096-097-212300-
SOUTH MIDDLE TENNESSEE

CITY           SKY/WX    TMP DP  RH WIND       PRES   REMARKS
FAYETTEVILLE   CLOUDY    50  39  66 MISG      30.06S
TULLAHOMA      CLOUDY    50  37  62 SE7       30.08R
WINCHESTER     CLOUDY    50  39  66 SE7       30.08S
MCMINNVILLE    CLOUDY    52  39  62 CALM      30.08S
COLUMBIA       CLOUDY    52  43  71 SW7       30.06R
SHELBYVILLE    CLOUDY    52  41  66 S3        30.08R
$$

TNZ017-018-042-046-047-212300-
NORTHEAST TENNESSEE

CITY           SKY/WX    TMP DP  RH WIND       PRES   REMARKS
TRI CITIES     MOCLDY    49  34  56 CALM      30.11F
ELIZABETHTON   CLEAR     46  36  66 SW3       30.10F
$$

TNZ012-013-036-069-073-074-212300-
CENTRAL EAST TENNESSEE

CITY           SKY/WX    TMP DP  RH WIND       PRES   REMARKS
KNOXVILLE      MOCLDY    49  36  61 NW5       30.10R
OAK RIDGE      MOCLDY    49  34  56 E3        30.12S
GATLINBURG     CLEAR     48  36  61 NE6       30.10R
MORRISTOWN     CLEAR     46  36  66 N5        30.11S
$$

TNZ083-085-099-212300-
SOUTHEAST TENNESSEE

CITY           SKY/WX    TMP DP  RH WIND       PRES   REMARKS
CHATTANOOGA    CLOUDY    48  37  65 CALM      30.11F
$$

SKY/WX REPORTED AS FAIR MEANS FEW OR NO CLOUDS BELOW
12 THOUSAND FEET.




USA.gov is the U.S. government's official web portal to all federal, state and local government web resources and services.